Location: �chemir�
(47.5500°N, 0.1667°W)
Time: 06:40:19
(UTC+01:00)

ISS - Visible Passes

Search period start: 02 December 2023 00:00
Search period end: 12 December 2023 00:00
Orbit: 416 x 417 km, 51.6° (Epoch: 01 December)

Date Brightness Start Highest point End Pass type
(mag) Time Alt. Az. Time Alt. Az. Time Alt. Az.
02 Dec -3.1 19:04:02 10° WNW 19:07:19 53° SSW 19:08:24 35° SSE visible
03 Dec -3.7 18:15:32 10° WNW 18:18:54 79° SSW 18:22:15 10° ESE visible
03 Dec -1.0 19:53:09 10° W 19:55:12 15° SW 19:55:29 15° SW visible
04 Dec -1.5 19:04:08 10° W 19:06:54 24° SW 19:09:38 10° SSE visible
05 Dec -2.2 18:15:22 10° WNW 18:18:30 36° SW 18:21:36 10° SSE visible
06 Dec -0.2 19:05:43 10° SW 19:06:08 10° SW 19:06:32 10° SW visible
07 Dec -0.7 18:15:34 10° W 18:17:46 16° SW 18:19:57 10° S visible
